Starlink 30965

operational
NORAD ID: 58477 Int'l Des: 2023-186 Owner: SPXS Country: US Constellation: starlink
LEOCIRCULAR

About Starlink 30965

Description loading...

Live Position

Loading 3D Globe...

Upcoming Passes

Altitude History

Altitude vs Time

uPlot chart will show altitude changes over time

Two-Line Element Set

1 58477U 23186E 25259.06688304 .00000650 00000-0 63173-4 0 9994
2 58477 43.0041 283.3011 0001486 272.5437 87.5235 15.02539966 99736
Epoch: Sep 16, 2025 • Age: 14 hours

Current Status

Altitude 570.8 km
Velocity 7.58 km/s
Sub-Earth Point -41.47°S, 57.72°W
Launch Date Dec 3, 2023
Age 1.7 years
Type internet

Technical Details

Classification Payload
Mass 730.00 kg
Dry Mass 700.00 kg
Total Mass 730.00 kg
Length 0.30 m
Diameter 4.10 m
Span 29.00 m
Shape Box + pan
Manufacturer SPXS
Bus Type Starlink V2M
Phase Status In Orbit
Owner/State SPXS/US

Large Constellations

Loading constellations...